CPQ848 KMTJ-KFNL

Flight info

Callsign CPQ848
Flight time 0h 46m
Altitude 23000
Route HBU3 HBU HAREI TOMSN
Aircraft DH8D/M-SDE2E3FGRUY/L

Departure

Time 2026-04-19 15:19
Airport Montrose Regional Airport (KMTJ)

Arrival

Time 2026-04-19 16:05
Airport Northern Colorado Regional Airport (KFNL)
Time Latitude Longitude Altitude Speed Heading
2026-04-19 14:45 38.49992 -107.89790 5724 ft 0 kts 229°
2026-04-19 15:08 38.49998 -107.89784 5725 ft 2 kts 219°
2026-04-19 15:08 38.50004 -107.89776 5725 ft 2 kts 223°
2026-04-19 15:09 38.50017 -107.89767 5725 ft 2 kts 198°
2026-04-19 15:09 38.50031 -107.89764 5725 ft 2 kts 176°
2026-04-19 15:09 38.50045 -107.89768 5725 ft 2 kts 154°
2026-04-19 15:09 38.50055 -107.89777 5724 ft 1 kts 138°
2026-04-19 15:10 38.50056 -107.89777 5724 ft 0 kts 138°
2026-04-19 15:12 38.50055 -107.89777 5725 ft 0 kts 138°
2026-04-19 15:12 38.50046 -107.89767 5725 ft 2 kts 138°
2026-04-19 15:13 38.50034 -107.89737 5727 ft 5 kts 87°
2026-04-19 15:13 38.50063 -107.89682 5728 ft 9 kts 49°
2026-04-19 15:13 38.50117 -107.89603 5729 ft 14 kts 49°
2026-04-19 15:13 38.50189 -107.89497 5729 ft 16 kts 49°
2026-04-19 15:14 38.50287 -107.89406 5728 ft 19 kts
2026-04-19 15:14 38.50436 -107.89406 5725 ft 22 kts 360°
2026-04-19 15:14 38.50591 -107.89407 5724 ft 21 kts 360°
2026-04-19 15:14 38.50737 -107.89408 5724 ft 20 kts 359°
2026-04-19 15:15 38.50884 -107.89407 5724 ft 21 kts 359°
2026-04-19 15:15 38.51043 -107.89408 5726 ft 23 kts
2026-04-19 15:15 38.51220 -107.89410 5726 ft 26 kts 360°
2026-04-19 15:15 38.51414 -107.89412 5727 ft 28 kts
2026-04-19 15:16 38.51618 -107.89411 5726 ft 30 kts 359°
2026-04-19 15:16 38.51837 -107.89412 5722 ft 32 kts 359°
2026-04-19 15:16 38.52069 -107.89414 5714 ft 33 kts 360°
2026-04-19 15:16 38.52303 -107.89413 5705 ft 31 kts 360°
2026-04-19 15:17 38.52507 -107.89413 5699 ft 27 kts 360°
2026-04-19 15:17 38.52715 -107.89415 5689 ft 29 kts 359°
2026-04-19 15:17 38.52904 -107.89416 5682 ft 24 kts 360°
2026-04-19 15:17 38.52973 -107.89350 5679 ft 13 kts 89°
2026-04-19 15:18 38.52878 -107.89274 5683 ft 36 kts 180°
2026-04-19 15:18 38.52344 -107.89272 5706 ft 114 kts 180°
2026-04-19 15:18 38.51365 -107.89274 5746 ft 161 kts 180°
2026-04-19 15:18 38.50176 -107.89303 6059 ft 177 kts 182°
2026-04-19 15:19 38.48941 -107.89365 6580 ft 185 kts 179°
2026-04-19 15:19 38.47669 -107.88841 6959 ft 199 kts 142°
2026-04-19 15:19 38.46872 -107.87425 7398 ft 205 kts 107°
2026-04-19 15:19 38.46864 -107.85609 7845 ft 209 kts 72°
2026-04-19 15:20 38.47643 -107.84077 8304 ft 212 kts 46°
2026-04-19 15:20 38.48703 -107.82745 8818 ft 214 kts 45°
2026-04-19 15:20 38.49747 -107.81424 9330 ft 215 kts 47°
2026-04-19 15:20 38.50480 -107.79763 9755 ft 218 kts 80°
2026-04-19 15:21 38.50470 -107.77854 10165 ft 218 kts 98°
2026-04-19 15:21 38.50258 -107.75890 10492 ft 229 kts 98°
2026-04-19 15:21 38.50048 -107.73854 10814 ft 238 kts 98°
2026-04-19 15:21 38.49847 -107.71731 11193 ft 243 kts 97°
2026-04-19 15:22 38.49659 -107.69593 11581 ft 246 kts 97°
2026-04-19 15:22 38.49418 -107.67430 11974 ft 249 kts 102°
2026-04-19 15:22 38.49072 -107.65265 12374 ft 250 kts 101°
2026-04-19 15:22 38.48774 -107.63094 12748 ft 249 kts 99°
2026-04-19 15:23 38.48524 -107.60915 13099 ft 248 kts 98°
2026-04-19 15:23 38.48309 -107.58724 13420 ft 248 kts 97°
2026-04-19 15:23 38.48119 -107.56512 13587 ft 256 kts 96°
2026-04-19 15:23 38.47948 -107.54250 13762 ft 259 kts 95°
2026-04-19 15:24 38.47791 -107.51947 13957 ft 262 kts 95°
2026-04-19 15:24 38.47645 -107.49628 14161 ft 264 kts 94°
2026-04-19 15:24 38.47505 -107.47284 14352 ft 265 kts 94°
2026-04-19 15:24 38.47371 -107.44952 14536 ft 266 kts 94°
2026-04-19 15:25 38.47240 -107.42615 14712 ft 266 kts 93°
2026-04-19 15:25 38.47111 -107.40258 14891 ft 267 kts 93°
2026-04-19 15:25 38.46984 -107.37894 15063 ft 268 kts 93°
2026-04-19 15:25 38.46858 -107.35525 15234 ft 268 kts 93°
2026-04-19 15:26 38.46733 -107.33141 15386 ft 269 kts 93°
2026-04-19 15:26 38.46609 -107.30769 15543 ft 269 kts 93°
2026-04-19 15:26 38.46482 -107.28368 15694 ft 270 kts 93°
2026-04-19 15:26 38.46357 -107.26002 15841 ft 271 kts 93°
2026-04-19 15:27 38.46227 -107.23581 15986 ft 271 kts 92°
2026-04-19 15:27 38.46099 -107.21188 16130 ft 272 kts 93°
2026-04-19 15:27 38.45972 -107.18797 16205 ft 276 kts 92°
2026-04-19 15:27 38.45840 -107.16325 16273 ft 280 kts 92°
2026-04-19 15:28 38.45709 -107.13847 16365 ft 282 kts 92°
2026-04-19 15:28 38.45576 -107.11344 16479 ft 284 kts 92°
2026-04-19 15:28 38.45440 -107.08820 16605 ft 286 kts 92°
2026-04-19 15:28 38.45368 -107.06294 16712 ft 286 kts 82°
2026-04-19 15:29 38.46039 -107.03982 16723 ft 275 kts 47°
2026-04-19 15:29 38.47457 -107.02484 16853 ft 266 kts 26°
2026-04-19 15:29 38.49051 -107.01260 16997 ft 266 kts 25°
2026-04-19 15:29 38.50658 -107.00053 17137 ft 267 kts 24°
2026-04-19 15:30 38.52259 -106.98859 17281 ft 268 kts 24°
2026-04-19 15:30 38.53869 -106.97665 17479 ft 269 kts 24°
2026-04-19 15:30 38.55511 -106.96452 17624 ft 270 kts 23°
2026-04-19 15:30 38.57134 -106.95257 17762 ft 274 kts 23°
2026-04-19 15:31 38.58804 -106.94029 17921 ft 276 kts 23°
2026-04-19 15:31 38.60455 -106.92813 18105 ft 278 kts 23°
2026-04-19 15:31 38.62146 -106.91570 18286 ft 280 kts 23°
2026-04-19 15:31 38.63850 -106.90319 18468 ft 285 kts 23°
2026-04-19 15:32 38.64988 -106.89484 18627 ft 287 kts 23°
2026-04-19 15:32 38.67321 -106.87770 18968 ft 290 kts 23°
2026-04-19 15:32 38.69065 -106.86488 19226 ft 292 kts 23°
2026-04-19 15:32 38.70826 -106.85193 19493 ft 293 kts 23°
2026-04-19 15:33 38.72595 -106.83890 19770 ft 293 kts 23°
2026-04-19 15:33 38.74348 -106.82599 20047 ft 293 kts 23°
2026-04-19 15:33 38.76119 -106.81298 20317 ft 292 kts 22°
2026-04-19 15:33 38.77878 -106.80002 20561 ft 288 kts 22°
2026-04-19 15:34 38.79578 -106.78747 20768 ft 285 kts 22°
2026-04-19 15:34 38.81305 -106.77473 20955 ft 282 kts 22°
2026-04-19 15:34 38.82991 -106.76228 21119 ft 280 kts 22°
2026-04-19 15:34 38.84659 -106.74998 21262 ft 276 kts 22°
2026-04-19 15:35 38.86314 -106.73776 21372 ft 273 kts 21°
2026-04-19 15:35 38.87963 -106.72560 21466 ft 271 kts 21°
2026-04-19 15:35 38.89593 -106.71356 21545 ft 269 kts 21°
2026-04-19 15:35 38.91208 -106.70163 21604 ft 268 kts 21°
2026-04-19 15:36 38.92824 -106.68969 21654 ft 267 kts 21°
2026-04-19 15:36 38.94431 -106.67780 21672 ft 268 kts 21°
2026-04-19 15:36 38.96057 -106.66580 21574 ft 274 kts 22°
2026-04-19 15:36 38.97725 -106.65347 21463 ft 280 kts 22°
2026-04-19 15:37 38.99439 -106.64082 21357 ft 285 kts 22°
2026-04-19 15:37 39.01172 -106.62798 21243 ft 290 kts 22°
2026-04-19 15:37 39.02928 -106.61498 21131 ft 294 kts 22°
2026-04-19 15:37 39.04693 -106.60185 21101 ft 297 kts 22°
2026-04-19 15:38 39.06501 -106.58838 21083 ft 300 kts 22°
2026-04-19 15:38 39.08316 -106.57479 21078 ft 303 kts 24°
2026-04-19 15:38 39.10090 -106.55985 21074 ft 307 kts 27°
2026-04-19 15:38 39.11833 -106.54437 21068 ft 308 kts 27°
2026-04-19 15:39 39.13611 -106.52859 21060 ft 308 kts 27°
2026-04-19 15:39 39.15356 -106.51314 21064 ft 308 kts 27°
2026-04-19 15:39 39.17120 -106.49756 21072 ft 308 kts 27°
2026-04-19 15:39 39.18885 -106.48199 21079 ft 309 kts 27°
2026-04-19 15:40 39.20684 -106.46616 21079 ft 310 kts 26°
2026-04-19 15:40 39.22456 -106.45058 21096 ft 311 kts 26°
2026-04-19 15:40 39.24252 -106.43478 21107 ft 313 kts 27°
2026-04-19 15:40 39.26051 -106.41897 21098 ft 318 kts 27°
2026-04-19 15:41 39.27888 -106.40281 21107 ft 322 kts 27°
2026-04-19 15:41 39.29759 -106.38633 21115 ft 326 kts 27°
2026-04-19 15:41 39.31650 -106.36968 21095 ft 330 kts 27°
2026-04-19 15:41 39.33539 -106.35303 21094 ft 333 kts 27°
2026-04-19 15:42 39.35469 -106.33601 21081 ft 335 kts 28°
2026-04-19 15:42 39.37456 -106.31846 21072 ft 336 kts 28°
2026-04-19 15:42 39.39405 -106.30125 21059 ft 338 kts 28°
2026-04-19 15:42 39.41338 -106.28417 21050 ft 339 kts 28°
2026-04-19 15:43 39.43304 -106.26679 21045 ft 339 kts 28°
2026-04-19 15:43 39.45246 -106.24961 21044 ft 340 kts 28°
2026-04-19 15:43 39.47197 -106.23235 21032 ft 340 kts 28°
2026-04-19 15:44 39.51047 -106.19822 21029 ft 333 kts 27°
2026-04-19 15:44 39.52942 -106.18140 21023 ft 331 kts 27°
2026-04-19 15:44 39.54845 -106.16452 21018 ft 328 kts 27°
2026-04-19 15:44 39.56721 -106.14786 21023 ft 325 kts 27°
2026-04-19 15:45 39.58563 -106.13150 21013 ft 323 kts 27°
2026-04-19 15:45 39.60425 -106.11495 21004 ft 321 kts 27°
2026-04-19 15:45 39.62262 -106.09861 21014 ft 319 kts 27°
2026-04-19 15:45 39.64078 -106.08244 21010 ft 318 kts 27°
2026-04-19 15:46 39.65888 -106.06633 21001 ft 317 kts 27°
2026-04-19 15:46 39.67712 -106.05007 21004 ft 315 kts 27°
2026-04-19 15:46 39.69502 -106.03411 21003 ft 315 kts 27°
2026-04-19 15:46 39.71307 -106.01800 21002 ft 314 kts 27°
2026-04-19 15:47 39.73116 -106.00186 20998 ft 313 kts 27°
2026-04-19 15:47 39.74911 -105.98583 21002 ft 313 kts 27°
2026-04-19 15:47 39.76685 -105.96996 20998 ft 313 kts 27°
2026-04-19 15:47 39.78473 -105.95396 20992 ft 312 kts 27°
2026-04-19 15:48 39.80275 -105.93784 20995 ft 312 kts 27°
2026-04-19 15:48 39.82055 -105.92189 20989 ft 312 kts 27°
2026-04-19 15:48 39.83839 -105.90591 20995 ft 311 kts 27°
2026-04-19 15:48 39.85605 -105.89007 20990 ft 311 kts 27°
2026-04-19 15:49 39.87391 -105.87404 20981 ft 311 kts 27°
2026-04-19 15:49 39.89180 -105.85796 20988 ft 311 kts 27°
2026-04-19 15:49 39.90955 -105.84200 20998 ft 311 kts 27°
2026-04-19 15:49 39.92728 -105.82606 20992 ft 312 kts 27°
2026-04-19 15:50 39.94524 -105.80990 21004 ft 312 kts 27°
2026-04-19 15:50 39.96308 -105.79382 21003 ft 313 kts 27°
2026-04-19 15:50 39.98106 -105.77763 21006 ft 312 kts 27°
2026-04-19 15:50 39.99889 -105.76154 21017 ft 313 kts 27°
2026-04-19 15:51 40.01676 -105.74542 21016 ft 313 kts 27°
2026-04-19 15:51 40.03456 -105.72934 21010 ft 313 kts 27°
2026-04-19 15:51 40.05218 -105.71338 21232 ft 306 kts 27°
2026-04-19 15:51 40.06980 -105.69743 21304 ft 307 kts 27°
2026-04-19 15:52 40.08734 -105.68157 21320 ft 310 kts 27°
2026-04-19 15:52 40.10535 -105.66530 21320 ft 313 kts 27°
2026-04-19 15:52 40.12327 -105.64909 21316 ft 316 kts 27°
2026-04-19 15:52 40.14148 -105.63258 21313 ft 318 kts 27°
2026-04-19 15:53 40.15960 -105.61613 21312 ft 319 kts 27°
2026-04-19 15:53 40.17777 -105.59964 21309 ft 321 kts 27°
2026-04-19 15:53 40.19606 -105.58303 21298 ft 322 kts 27°
2026-04-19 15:53 40.21455 -105.56623 21289 ft 322 kts 27°
2026-04-19 15:54 40.23306 -105.54939 21288 ft 322 kts 27°
2026-04-19 15:54 40.25135 -105.53275 21286 ft 322 kts 27°
2026-04-19 15:54 40.26958 -105.51614 21293 ft 322 kts 27°
2026-04-19 15:54 40.28808 -105.49927 21297 ft 322 kts 28°
2026-04-19 15:55 40.30630 -105.48254 21294 ft 323 kts 29°
2026-04-19 15:55 40.32196 -105.46117 20971 ft 331 kts 52°
2026-04-19 15:55 40.32932 -105.43250 20155 ft 347 kts 80°
2026-04-19 15:55 40.32636 -105.40099 19170 ft 360 kts 108°
2026-04-19 15:56 40.31320 -105.37355 18195 ft 363 kts 134°
2026-04-19 15:56 40.29444 -105.35133 17216 ft 365 kts 141°
2026-04-19 15:56 40.27531 -105.32972 16266 ft 368 kts 141°
2026-04-19 15:56 40.25624 -105.30777 15478 ft 364 kts 140°
2026-04-19 15:57 40.23759 -105.28593 14904 ft 354 kts 140°
2026-04-19 15:57 40.21960 -105.26466 14429 ft 342 kts 140°
2026-04-19 15:57 40.20256 -105.24419 13996 ft 331 kts 139°
2026-04-19 15:57 40.18591 -105.22403 13575 ft 320 kts 140°
2026-04-19 15:58 40.17118 -105.20280 12820 ft 325 kts 122°
2026-04-19 15:58 40.16532 -105.17529 12423 ft 310 kts 89°
2026-04-19 15:58 40.17020 -105.14887 12104 ft 291 kts 63°
2026-04-19 15:58 40.17920 -105.12565 11756 ft 281 kts 59°
2026-04-19 15:59 40.18829 -105.10381 11401 ft 272 kts 58°
2026-04-19 15:59 40.19726 -105.08234 11056 ft 264 kts 59°
2026-04-19 15:59 40.20600 -105.06179 10718 ft 254 kts 58°
2026-04-19 15:59 40.21448 -105.04202 10398 ft 244 kts 58°
2026-04-19 16:00 40.22255 -105.02307 10100 ft 241 kts 58°
2026-04-19 16:00 40.23089 -105.00410 9785 ft 240 kts 57°
2026-04-19 16:00 40.23926 -104.98511 9474 ft 240 kts 58°
2026-04-19 16:00 40.24750 -104.96619 9162 ft 240 kts 58°
2026-04-19 16:01 40.25618 -104.94745 8755 ft 244 kts 50°
2026-04-19 16:01 40.26962 -104.93574 8330 ft 229 kts
2026-04-19 16:01 40.28460 -104.93713 8082 ft 213 kts 342°
2026-04-19 16:01 40.29887 -104.94287 7824 ft 211 kts 340°
2026-04-19 16:02 40.31267 -104.94885 7569 ft 210 kts 340°
2026-04-19 16:02 40.32645 -104.95498 7305 ft 210 kts 340°
2026-04-19 16:02 40.34002 -104.96109 7044 ft 197 kts 340°
2026-04-19 16:02 40.35251 -104.96677 6804 ft 182 kts 340°
2026-04-19 16:03 40.36416 -104.97210 6556 ft 173 kts 340°
2026-04-19 16:03 40.37517 -104.97711 6361 ft 164 kts 340°
2026-04-19 16:03 40.38570 -104.98189 6123 ft 158 kts 340°
2026-04-19 16:03 40.39590 -104.98651 5903 ft 152 kts 340°
2026-04-19 16:04 40.40575 -104.99101 5695 ft 146 kts 340°
2026-04-19 16:04 40.41517 -104.99544 5526 ft 143 kts 340°
2026-04-19 16:04 40.42457 -104.99985 5351 ft 145 kts 341°
2026-04-19 16:04 40.43395 -105.00424 5161 ft 140 kts 340°
2026-04-19 16:05 40.44287 -105.00837 5016 ft 118 kts 340°
2026-04-19 16:05 40.44679 -105.01020 5009 ft 22 kts 341°
2026-04-19 16:05 40.44790 -105.01012 5007 ft 13 kts 13°
2026-04-19 16:05 40.44871 -105.00994 5006 ft 8 kts 10°
2026-04-19 16:06 40.44922 -105.00975 5007 ft 5 kts 39°
2026-04-19 16:06 40.44944 -105.00924 5007 ft 8 kts 71°
2026-04-19 16:06 40.44993 -105.00884 5006 ft 5 kts 57°
2026-04-19 16:06 40.45005 -105.00843 5006 ft 0 kts 71°